Location: B�chen
(47.7833°N, 9.3333°E)
Time: 15:05:17
(UTC+00:00)

Daily predictions for brighter satellites

Satellite Brightness Start Highest point End
(mag) Time Altitude Azimuth Time Altitude Azimuth Time Altitude Azimuth
Cosmos 2221 3.4 16:00:10 10° SSW 16:04:22 52° WNW 16:08:37 10° N
USA 308 3.6 16:00:42 10° WNW 16:04:40 37° N 16:08:39 10° ENE
Okean O Rocket 3.4 16:02:47 10° E 16:04:43 13° ENE 16:06:39 10° NNE
SL-16 R/B 3.2 16:00:19 10° N 16:04:53 24° NE 16:09:26 10° E
MOS 1 Rocket 4.1 16:00:52 10° N 16:05:42 55° WNW 16:10:12 10° SSW
CZ-2C R/B 2.8 16:01:26 10° SSE 16:06:13 70° ENE 16:10:57 10° N
Cosmos 2082 Rocket 2.6 16:02:54 10° S 16:08:19 48° ESE 16:13:45 10° NE
Sich 1 3.2 16:04:55 10° N 16:09:08 50° ENE 16:13:20 10° SSE
Cosmos 1500 Rocket 3.8 16:04:46 10° NNW 16:09:12 78° W 16:13:35 10° S
Cosmos 540 Rocket 3.5 16:04:14 10° S 16:09:18 70° ESE 16:14:24 10° NNE
ARGOS 4.4 16:07:05 10° E 16:10:47 19° ENE 16:14:30 10° NNE
FengYun 1-2 T 4.3 16:08:32 10° SSE 16:14:00 62° ENE 16:19:29 10° N
COSMOS 2455 2.9 16:08:53 10° SSW 16:14:51 68° ESE 16:20:51 10° NE
SMAP 3.3 16:12:15 10° SE 16:16:44 49° ENE 16:21:14 10° N
NOAA 6 4.2 16:13:15 10° SE 16:18:14 53° ENE 16:23:13 10° N
Cosmos 1933 3.3 16:17:34 10° S 16:21:37 85° E 16:25:39 10° N
Cosmos 1833 Rocket 3.0 16:16:02 10° SW 16:21:38 69° WNW 16:27:17 10° NNE
Cosmos 1805 Rocket 3.5 16:17:19 10° N 16:21:41 85° E 16:26:02 10° S
Cosmos 2278 3.7 16:16:34 10° NNW 16:22:15 63° ENE 16:27:53 10° SE
Cosmos 2333 Rocket 4.0 16:21:09 10° N 16:23:44 13° NNE 16:26:02 11° NE
Cosmos 1602 3.8 16:20:41 10° N 16:24:34 84° W 16:28:27 10° S
CZ-4B DEB 4.4 16:22:06 10° SE 16:27:24 51° ENE 16:32:42 10° N
USA 305 3.4 16:25:09 10° WNW 16:29:13 42° NNE 16:32:51 12° E
CZ-2C R/B 3.7 16:26:19 10° NE 16:30:17 22° E 16:34:13 10° SE
SL-24 R/B - RUBIN 2 4.2 16:27:11 10° NW 16:31:39 59° WSW 16:35:52 10° SSE
Cosmos 2219 Rocket 4.0 16:29:46 10° N 16:31:48 12° NNE 16:33:20 11° NE
CZ-4B R/B 3.1 16:28:52 10° S 16:32:47 70° WSW 16:36:33 10° NNW
Cosmos 1500 3.0 16:31:06 10° N 16:34:51 83° E 16:38:34 10° S
Meteor 1-14 Rocket 4.4 16:29:18 10° N 16:35:07 60° ENE 16:40:59 10° SSE
Cosmos 44 Rocket 3.3 16:31:31 10° NNW 16:36:25 60° NE 16:41:08 10° SE
Meteor 2-16 Rocket 4.5 16:33:17 10° N 16:39:20 58° ENE 16:45:22 10° SSE
COSMOS 2406 3.6 16:35:35 10° SW 16:41:17 64° WNW 16:47:00 10° NNE
Cosmos 1814 Rocket 4.0 16:37:01 10° S 16:42:10 63° ESE 16:47:17 10° NNE
Cosmos 921 Rocket 3.9 16:39:50 10° SSE 16:43:27 28° E 16:45:57 16° NE
Cosmos 1570 Rocket 4.0 16:43:52 10° S 16:49:01 63° ESE 16:54:12 10° NNE
MOS 1-B Rocket 4.4 16:45:54 10° NNE 16:51:48 49° E 16:58:31 10° S
CZ-4B R/B 3.4 16:48:24 10° SE 16:53:30 46° ENE 16:58:33 10° N
Cosmos 2298 Rocket 4.1 16:49:56 10° NNW 16:55:09 52° ENE 17:00:21 10° SE
CZ-2D R/B 3.2 16:51:59 10° SSE 16:55:45 62° ENE 16:59:32 10° N
USA 267 3.3 16:50:26 16° ENE 16:55:55 75° SE 17:02:26 10° SW
MOS 1-B 4.3 16:52:37 10° SSE 16:58:20 67° ENE 17:04:05 10° N
Cosmos 1939 Rocket 3.6 16:54:26 10° S 16:58:27 57° W 17:02:28 10° NNW
ATLAS CENTAUR R/B 3.1 16:49:31 10° WSW 16:58:40 61° NW 17:01:31 20° NE
Cosmos 1151 Rocket 2.9 16:57:08 10° S 17:01:28 80° E 17:05:52 10° NNE
USA 306 3.1 16:57:28 10° WNW 17:01:39 53° NNE 17:03:51 25° E
COSMO-SKYMED 1 3.2 16:59:10 19° NE 17:01:41 34° E 17:05:39 10° SSE
Cosmos 1633 Rocket 2.9 16:57:25 10° N 17:01:50 81° E 17:06:13 10° SSE
Cosmos 1666 2.6 16:59:50 10° N 17:03:35 84° W 17:07:16 10° S
Cosmos 1782 3.7 16:59:46 10° SSW 17:03:38 49° WNW 17:07:31 10° N
APEX 3.7 17:00:36 10° S 17:03:55 31° ESE 17:04:24 29° E
Meteor 2-6 Rocket 4.2 16:58:54 10° S 17:04:30 61° E 17:09:59 10° NNE
Landsat 5 4.5 17:05:03 24° E 17:05:03 24° E 17:08:08 10° SSE
Cosmos 2360 Rocket 3.0 17:01:02 10° NNW 17:06:01 30° NE 17:08:17 23° E
ISS -0.9 17:04:23 10° W 17:06:53 19° SW 17:09:23 10° S
PAYLOAD B 4.2 17:02:47 10° SSE 17:08:23 84° ENE 17:14:01 10° NNW
Cosmos 1900 4.2 17:03:46 10° SSW 17:08:37 81° ESE 17:11:52 21° NE
YAOGAN 1 4.2 17:11:21 17° NNE 17:11:21 17° NNE 17:12:49 10° N
Cosmos 1818 3.7 17:06:28 10° NW 17:11:58 79° SW 17:17:24 10° SSE
CZ-2C R/B 3.7 17:14:35 10° SSW 17:16:50 14° S 17:19:01 10° SE
Cosmos 2279 Rocket 4.0 17:11:19 10° S 17:17:32 86° W 17:23:46 10° N
ATLAS 5 CENTAUR R/B 2.0 17:11:51 10° NW 17:18:45 56° NNE 17:19:39 40° E
Meteor 2-15 4.4 17:13:52 10° S 17:19:52 65° E 17:25:54 10° NNE
Cosmos 2266 Rocket 4.0 17:14:34 10° N 17:20:56 64° ENE 17:27:18 10° SSE
ERBS 4.2 17:18:56 10° NW 17:20:46 18° N 17:20:46 18° N
USA 307 2.9 17:18:02 10° WNW 17:22:16 62° NNE 17:23:33 41° E
CZ-4C R/B 3.7 17:15:51 10° NW 17:23:00 58° WSW 17:31:16 10° SSE
SL-08 RB Rocket 3.9 17:20:35 10° SE 17:25:00 46° ENE 17:29:23 10° N
Lacrosse 5 rocket 1.9 17:21:27 10° WNW 17:25:18 55° SW 17:28:57 12° SSE
NOSS 3-4 (A) 4.5 17:20:47 10° NW 17:26:45 33° NNE 17:28:52 28° ENE
NOSS 3-4 (C) 4.5 17:20:54 10° NW 17:26:51 33° NNE 17:28:56 28° ENE
Cosmos 2208 Rocket 4.2 17:22:56 10° SSW 17:28:22 79° WNW 17:32:51 16° NNE
Cosmos 1933 Rocket 3.5 17:24:38 10° N 17:28:56 57° ENE 17:33:12 10° SSE
Cosmos 2322 Rocket 2.2 17:23:19 10° NNW 17:29:00 63° ENE 17:34:40 10° SE
ATLAS 2AS CENTAUR R/B 4.0 17:22:59 10° NW 17:29:03 25° NNE 17:31:18 22° NE
COSMOS 2428 4.2 17:25:36 10° N 17:28:44 19° NNE 17:28:44 19° NNE
USA 234 3.3 17:23:31 10° SE 17:30:05 79° SW 17:36:39 10° NW
Cosmos 2150 Rocket 3.9 17:25:33 10° NNW 17:30:46 88° WSW 17:36:01 10° SSE
Cosmos 1328 Rocket 3.8 17:27:08 10° SSW 17:31:33 71° W 17:36:01 10° N
Cosmos 1980 Rocket 4.2 17:26:58 10° NW 17:31:50 30° WSW 17:36:39 10° SSW
Cosmos 1470 Rocket 3.7 17:30:31 10° NNW 17:34:59 79° W 17:39:28 10° S
Cosmos 1544 2.9 17:31:28 10° N 17:35:06 87° ENE 17:38:44 10° S
Cosmos 1125 Rocket 3.5 17:31:43 10° NNW 17:37:00 85° WSW 17:42:16 10° SSE
Cosmos 1867 3.9 17:32:18 10° S 17:37:29 46° ESE 17:38:28 41° E
Cosmos 1812 4.3 17:33:59 10° SW 17:37:30 34° WNW 17:41:03 10° N
NOSS 3-3 (A) 4.4 17:32:39 10° S 17:37:45 36° ESE 17:38:22 35° ESE
NOSS 3-3 (C) 4.4 17:32:46 10° S 17:37:52 36° ESE 17:38:27 35° ESE
X-37B 2.2 17:36:02 10° SW 17:37:49 24° S 17:37:49 24° S
H-2A R/B 2.6 17:33:36 10° S 17:38:38 59° W 17:43:35 10° NNW
DEBRIS 4.2 17:36:52 10° S 17:38:35 24° SSE 17:38:35 24° SSE
Okean O Rocket 1.5 17:35:55 10° SSE 17:40:22 89° E 17:44:53 10° NNW
Meteor 1-10 Rocket 4.2 17:35:52 10° S 17:41:38 88° ESE 17:47:11 11° NNE
Meteor 1-11 Rocket 3.6 17:36:30 10° N 17:42:11 83° E 17:47:58 10° SSE
GEOS 3 Rocket 4.1 17:41:55 39° NE 17:42:14 39° NE 17:47:01 10° NNW
USA 32 4.0 17:38:29 10° S 17:43:37 61° E 17:46:22 27° NNE
USA 308 2.7 17:40:43 10° WNW 17:44:59 79° NNE 17:45:21 71° E
SL-16 R/B 2.3 17:43:54 10° NNW 17:49:35 74° WSW 17:55:14 10° SSE
SKYMED 2 3.6 17:47:47 30° N 17:49:53 78° WNW 17:54:13 10° SSW
ARGOS 3.2 17:45:04 10° S 17:50:28 77° WSW 17:55:54 10° NNW
Cosmos 2237 Rocket 4.3 17:48:27 10° N 17:49:04 11° N 17:49:04 11° N
Cosmos 2082 Rocket 3.6 17:47:30 10° WSW 17:52:36 33° NW 17:56:57 14° N
deb Chang Zheng 4 4.2 17:51:46 10° S 17:55:59 55° WSW 18:00:15 10° NNW
Cosmos 1241 Rocket 4.4 17:54:43 10° SSW 18:01:00 61° ESE 18:01:58 55° E
COSMOS 2455 4.3 17:55:59 10° W 18:01:16 31° NW 18:04:54 18° N
Feng Yun 1-1 Rocket 4.3 17:59:23 10° SSE 18:05:19 89° WSW 18:11:11 10° NNW
USA 305 3.2 18:05:03 10° WNW 18:08:52 63° WSW 18:08:52 63° WSW
Cosmos 2333 Rocket 3.0 18:04:02 10° NNW 18:08:05 38° NNE 18:08:05 38° NNE
Cosmos 1356 Rocket 4.3 18:05:35 10° NNW 18:09:40 49° W 18:13:46 10° S
CZ-2C R/B 3.1 18:06:50 16° N 18:10:57 56° WNW 18:15:59 10° SSW
Cosmos 2219 Rocket 3.4 18:12:00 10° NNW 18:15:04 29° N 18:15:04 29° N
Aureole 3 Rocket 3.7 18:13:16 10° SSW 18:17:55 77° WNW 18:24:34 10° N
Nadezhda 2 Rocket 4.4 18:18:01 10° N 18:24:23 75° ENE 18:24:23 75° ENE
COSMO-SKYMED 1 4.5 18:36:23 23° NW 18:37:45 27° WNW 18:41:24 10° WSW
USA 267 3.7 18:37:47 48° N 18:38:46 52° NNW 18:45:02 10° W
Cosmos 2360 Rocket 2.8 18:44:48 10° NW 18:50:08 54° WSW 18:50:08 54° WSW
Cosmos 2322 Rocket 4.3 19:08:10 10° NW 19:12:35 24° WSW 19:16:59 10° SSW
NOSS 3-4 (A) 4.4 19:11:31 10° NW 19:16:19 50° NW 19:16:19 50° NW
NOSS 3-4 (C) 4.4 19:11:37 10° NW 19:16:24 50° NW 19:16:24 50° NW
ATLAS 2AS CENTAUR R/B 4.0 19:14:36 10° NW 19:18:44 33° NNW 19:18:44 33° NNW
